Zurück zum Katalog

DELTA 1 DEB

AktivUNKNOWN
NORAD 10714·DEBRIS·🇺🇸 United States

Gestartet Jul 29, 1976 von Vandenberg Space Force Base

Loading…

Nächste Überflüge (nächste 24 Stunden)

TLE

AktuellSource: Space-Track

Epoche: Sep 13, 2026, 15:15 UTC

1 10714U 76077AK  26256.63600785  .00000588  00000-0  90893-2 0  9998
2 10714 103.3724 149.0572 0566989 206.5782 179.1143 11.54584439103257

Verfolge DELTA 1 DEB in Echtzeit mit AllMySat

Download on the App Store